PP5FMM-13 Weather Reports


time (UTC)temp
C
wind
direction
speed
KPH
gust
KPH
rain 1hr
cm
rain 24hr
cm
rain mn
cm
humidity
%
barometer
mb
20260507201536 29 0.0 0.0 0.00 0.00 0.00 90 1007.7
20260507201035 29 0.0 0.0 0.00 0.00 0.00 90 1007.6
20260507200536 29 0.0 0.0 0.00 0.00 0.00 89 1007.7
20260507200036 29 0.0 0.0 0.00 0.00 0.00 89 1007.7
20260507195535 29 0.0 0.0 0.00 0.00 0.00 89 1007.6
20260507195036 29 0.0 0.0 0.00 0.00 0.00 88 1007.6
20260507194536 29 0.0 0.0 0.00 0.00 0.00 88 1007.5
20260507194035 29 0.0 0.0 0.00 0.00 0.00 89 1007.4
20260507193536 29 0.0 0.0 0.00 0.00 0.00 89 1007.5
20260507193035 30 0.0 0.0 0.00 0.00 0.00 89 1007.5
20260507192537 29 0.0 0.0 0.00 0.00 0.00 89 1007.5
20260507192036 30 0.0 0.0 0.00 0.00 0.00 88 1007.6
20260507191536 30 0.0 0.0 0.00 0.00 0.00 87 1007.7
20260507191036 30 0.0 0.0 0.00 0.00 0.00 86 1007.6
20260507190536 30 0.0 0.0 0.00 0.00 0.00 86 1007.7
20260507190036 30 0.0 0.0 0.00 0.00 0.00 86 1007.7
20260507185536 30 0.0 0.0 0.00 0.00 0.00 86 1007.7
20260507185035 30 0.0 0.0 0.00 0.00 0.00 87 1007.7
20260507184536 30 0.0 0.0 0.00 0.00 0.00 87 1007.6
20260507184036 30 0.0 0.0 0.00 0.00 0.00 88 1007.6
20260507183536 29 0.0 0.0 0.00 0.00 0.00 88 1007.7
20260507183036 30 0.0 0.0 0.00 0.00 0.00 88 1007.6
20260507182536 30 0.0 0.0 0.00 0.00 0.00 91 1007.8
20260507182035 30 0.0 0.0 0.00 0.00 0.00 93 1007.8
20260507181536 30 0.0 0.0 0.00 0.00 0.00 88 1007.9
20260507181036 30 0.0 0.0 0.00 0.00 0.00 84 1007.9
20260507180536 30 0.0 0.0 0.00 0.00 0.00 84 1007.9
20260507180036 30 0.0 0.0 0.00 0.00 0.00 84 1007.9
20260507175536 30 0.0 0.0 0.00 0.00 0.00 83 1008.0
20260507175036 30 0.0 0.0 0.00 0.00 0.00 83 1008.1
20260507174536 30 0.0 0.0 0.00 0.00 0.00 82 1008.1
20260507174036 30 0.0 0.0 0.00 0.00 0.00 83 1008.0
20260507173535 30 0.0 0.0 0.00 0.00 0.00 83 1008.0
20260507173036 30 0.0 0.0 0.00 0.00 0.00 82 1008.0
20260507172536 30 0.0 0.0 0.00 0.00 0.00 82 1008.2
20260507172036 30 0.0 0.0 0.00 0.00 0.00 82 1008.3
20260507171536 30 0.0 0.0 0.00 0.00 0.00 82 1008.3
20260507171036 30 0.0 0.0 0.00 0.00 0.00 83 1008.4
20260507170536 30 0.0 0.0 0.00 0.00 0.00 83 1008.5
20260507170036 30 0.0 0.0 0.00 0.00 0.00 84 1008.5
20260507165536 29 0.0 0.0 0.00 0.00 0.00 84 1008.7
20260507165035 29 0.0 0.0 0.00 0.00 0.00 85 1008.7
20260507164536 29 0.0 0.0 0.00 0.00 0.00 86 1008.7
20260507164035 29 0.0 0.0 0.00 0.00 0.00 86 1008.8
20260507163536 29 0.0 0.0 0.00 0.00 0.00 86 1008.9
20260507163036 28 0.0 0.0 0.00 0.00 0.00 88 1009.0
20260507162535 28 0.0 0.0 0.00 0.00 0.00 89 1009.1
20260507162035 28 0.0 0.0 0.00 0.00 0.00 89 1009.3
20260507161535 28 0.0 0.0 0.00 0.00 0.00 89 1009.5
20260507161036 28 0.0 0.0 0.00 0.00 0.00 90 1009.6
20260507160536 28 0.0 0.0 0.00 0.00 0.00 89 1009.7
20260507160036 28 0.0 0.0 0.00 0.00 0.00 89 1010.0
20260507155536 28 0.0 0.0 0.00 0.00 0.00 89 1010.1
20260507155036 28 0.0 0.0 0.00 0.00 0.00 88 1010.1
20260507154535 28 0.0 0.0 0.00 0.00 0.00 86 1010.3
20260507154035 28 0.0 0.0 0.00 0.00 0.00 89 1010.3
20260507153536 28 0.0 0.0 0.00 0.00 0.00 90 1010.4
20260507153036 28 0.0 0.0 0.00 0.00 0.00 90 1010.6
20260507152536 28 0.0 0.0 0.00 0.00 0.00 90 1010.8
20260507152058 28 0.0 0.0 0.00 0.00 0.00 90 1010.9
20260507151535 28 0.0 0.0 0.00 0.00 0.00 90 1011.0
20260507151035 28 0.0 0.0 0.00 0.00 0.00 90 1010.9
20260507150535 28 0.0 0.0 0.00 0.00 0.00 90 1011.1
20260507150035 28 0.0 0.0 0.00 0.00 0.00 90 1011.2
20260507145535 28 0.0 0.0 0.00 0.00 0.00 91 1011.3
20260507145035 28 0.0 0.0 0.00 0.00 0.00 90 1011.4
20260507144535 28 0.0 0.0 0.00 0.00 0.00 91 1011.6
20260507144035 28 0.0 0.0 0.00 0.00 0.00 91 1011.5
20260507143535 28 0.0 0.0 0.00 0.00 0.00 91 1011.6
20260507143036 28 0.0 0.0 0.00 0.00 0.00 91 1011.7
20260507142535 28 0.0 0.0 0.00 0.00 0.00 92 1011.8
20260507142035 28 0.0 0.0 0.00 0.00 0.00 93 1011.9
20260507141536 28 0.0 0.0 0.00 0.00 0.00 93 1011.9
20260507141035 28 0.0 0.0 0.00 0.00 0.00 91 1011.9
20260507140536 28 0.0 0.0 0.00 0.00 0.00 91 1012.0
20260507140035 28 0.0 0.0 0.00 0.00 0.00 90 1012.1
20260507135536 28 0.0 0.0 0.00 0.00 0.00 90 1012.3
20260507135035 28 0.0 0.0 0.00 0.00 0.00 90 1012.5
20260507134536 28 0.0 0.0 0.00 0.00 0.00 90 1012.5
20260507134036 28 0.0 0.0 0.00 0.00 0.00 89 1012.6
20260507133535 28 0.0 0.0 0.00 0.00 0.00 90 1012.8
20260507133036 28 0.0 0.0 0.00 0.00 0.00 91 1012.9
20260507132535 28 0.0 0.0 0.00 0.00 0.00 91 1012.9
20260507132036 28 0.0 0.0 0.00 0.00 0.00 91 1013.1
20260507131536 28 0.0 0.0 0.00 0.00 0.00 91 1013.1
20260507131036 28 0.0 0.0 0.00 0.00 0.00 91 1013.0
20260507130535 28 0.0 0.0 0.00 0.00 0.00 92 1013.2
20260507130036 28 0.0 0.0 0.00 0.00 0.00 93 1013.2
20260507125535 28 0.0 0.0 0.00 0.00 0.00 92 1013.3
20260507125036 28 0.0 0.0 0.00 0.00 0.00 92 1013.5
20260507124536 28 0.0 0.0 0.00 0.00 0.00 92 1013.6
20260507124036 28 0.0 0.0 0.00 0.00 0.00 92 1013.6
20260507123536 28 0.0 0.0 0.00 0.00 0.00 92 1013.4
20260507123036 28 0.0 0.0 0.00 0.00 0.00 92 1013.5
20260507122535 28 0.0 0.0 0.00 0.00 0.00 92 1013.6
20260507122035 28 0.0 0.0 0.00 0.00 0.00 91 1013.7
20260507121535 28 0.0 0.0 0.00 0.00 0.00 91 1013.8
20260507121036 28 0.0 0.0 0.00 0.00 0.00 90 1013.8
20260507120535 29 0.0 0.0 0.00 0.00 0.00 91 1013.7
20260507120035 28 0.0 0.0 0.00 0.00 0.00 92 1013.8
20260507115535 28 0.0 0.0 0.00 0.00 0.00 92 1013.8
20260507115035 28 0.0 0.0 0.00 0.00 0.00 93 1013.8
20260507114536 28 0.0 0.0 0.00 0.00 0.00 94 1014.0
20260507114035 28 0.0 0.0 0.00 0.00 0.00 94 1013.9
20260507113536 28 0.0 0.0 0.00 0.00 0.00 95 1014.0
20260507113037 27 0.0 0.0 0.00 0.00 0.00 97 1013.9
20260507112535 27 0.0 0.0 0.00 0.00 0.00 97 1014.0
20260507112035 27 0.0 0.0 0.00 0.00 0.00 98 1013.9
20260507111536 27 0.0 0.0 0.00 0.00 0.00 98 1013.9
20260507111036 27 0.0 0.0 0.00 0.00 0.00 99 1013.8
20260507110536 27 0.0 0.0 0.00 0.00 0.00 99 1013.8
20260507110036 27 0.0 0.0 0.00 0.00 0.00 99 1013.8
20260507105536 27 0.0 0.0 0.00 0.00 0.00 10 1013.7
20260507105035 27 0.0 0.0 0.00 0.00 0.00 10 1013.8
20260507104535 27 0.0 0.0 0.00 0.00 0.00 10 1013.7
20260507104036 27 0.0 0.0 0.00 0.00 0.00 10 1013.6
20260507103536 27 0.0 0.0 0.00 0.00 0.00 10 1013.7
20260507103036 27 0.0 0.0 0.00 0.00 0.00 99 1013.7
20260507102535 27 0.0 0.0 0.00 0.00 0.00 10 1013.7
20260507102035 27 0.0 0.0 0.00 0.00 0.00 10 1013.7
20260507101536 27 0.0 0.0 0.00 0.00 0.00 10 1013.6
20260507101035 27 0.0 0.0 0.00 0.00 0.00 10 1013.6
20260507100535 27 0.0 0.0 0.00 0.00 0.00 10 1013.7
20260507100035 27 0.0 0.0 0.00 0.00 0.00 10 1013.8
20260507095536 27 0.0 0.0 0.00 0.00 0.00 10 1013.7
20260507095036 27 0.0 0.0 0.00 0.00 0.00 10 1013.7
20260507094535 27 0.0 0.0 0.00 0.00 0.00 10 1013.7
20260507094035 27 0.0 0.0 0.00 0.00 0.00 10 1013.7
20260507093535 27 0.0 0.0 0.00 0.00 0.00 10 1013.8
20260507093035 27 0.0 0.0 0.00 0.00 0.00 10 1013.8
20260507092535 27 0.0 0.0 0.00 0.00 0.00 10 1013.8
20260507092035 27 0.0 0.0 0.00 0.00 0.00 10 1013.7
20260507091535 27 0.0 0.0 0.00 0.00 0.00 10 1013.5
20260507091035 27 0.0 0.0 0.00 0.00 0.00 10 1013.5
20260507090536 27 0.0 0.0 0.00 0.00 0.00 10 1013.5
20260507090035 27 0.0 0.0 0.00 0.00 0.00 10 1013.6
20260507085535 27 0.0 0.0 0.00 0.00 0.00 99 1013.6
20260507085036 27 0.0 0.0 0.00 0.00 0.00 10 1013.5
20260507084536 27 0.0 0.0 0.00 0.00 0.00 10 1013.6
20260507084035 27 0.0 0.0 0.00 0.00 0.00 10 1013.6
20260507083535 27 0.0 0.0 0.00 0.00 0.00 10 1013.6
20260507083036 27 0.0 0.0 0.00 0.00 0.00 10 1013.5
20260507082535 27 0.0 0.0 0.00 0.00 0.00 10 1013.3
20260507082035 27 0.0 0.0 0.00 0.00 0.00 10 1013.3
20260507081535 27 0.0 0.0 0.00 0.00 0.00 10 1013.3
20260507081035 27 0.0 0.0 0.00 0.00 0.00 10 1013.2
20260507080535 27 0.0 0.0 0.00 0.00 0.00 10 1013.3
20260507080037 27 0.0 0.0 0.00 0.00 0.00 10 1013.3
20260507075536 27 0.0 0.0 0.00 0.00 0.00 10 1013.2
20260507075036 27 0.0 0.0 0.00 0.00 0.00 10 1013.2
20260507074536 27 0.0 0.0 0.00 0.00 0.00 99 1013.3
20260507074035 27 0.0 0.0 0.00 0.00 0.00 99 1013.3
20260507073535 27 0.0 0.0 0.00 0.00 0.00 99 1013.3
20260507073035 27 0.0 0.0 0.00 0.00 0.00 99 1013.4
20260507072535 27 0.0 0.0 0.00 0.00 0.00 99 1013.3
20260507072036 27 0.0 0.0 0.00 0.00 0.00 99 1013.4
20260507071535 27 0.0 0.0 0.00 0.00 0.00 98 1013.4
20260507071035 27 0.0 0.0 0.00 0.00 0.00 99 1013.5
20260507070535 27 0.0 0.0 0.00 0.00 0.00 99 1013.5
20260507070035 27 0.0 0.0 0.00 0.00 0.00 99 1013.5
20260507065535 27 0.0 0.0 0.00 0.00 0.00 99 1013.6
20260507065035 27 0.0 0.0 0.00 0.00 0.00 99 1013.7
20260507064535 27 0.0 0.0 0.00 0.00 0.00 99 1013.7
20260507064035 27 0.0 0.0 0.00 0.00 0.00 99 1013.7
20260507063535 27 0.0 0.0 0.00 0.00 0.00 99 1013.8
20260507063035 27 0.0 0.0 0.00 0.00 0.00 99 1014.0
20260507062535 28 0.0 0.0 0.00 0.00 0.00 99 1013.9
20260507062035 28 0.0 0.0 0.00 0.00 0.00 99 1014.1
20260507061535 27 0.0 0.0 0.00 0.00 0.00 99 1014.2
20260507061035 27 0.0 0.0 0.00 0.00 0.00 10 1014.2
20260507060535 27 0.0 0.0 0.00 0.00 0.00 10 1014.3
20260507060035 28 0.0 0.0 0.00 0.00 0.00 99 1014.3
20260507055536 28 0.0 0.0 0.00 0.00 0.00 99 1014.5
20260507055035 27 0.0 0.0 0.00 0.00 0.00 10 1014.4
20260507054535 27 0.0 0.0 0.00 0.00 0.00 10 1014.6
20260507054035 27 0.0 0.0 0.00 0.00 0.00 10 1014.6
20260507053535 27 0.0 0.0 0.00 0.00 0.00 10 1014.6
20260507053035 27 0.0 0.0 0.00 0.00 0.00 10 1014.6
20260507052535 27 0.0 0.0 0.00 0.00 0.00 10 1014.7
20260507052035 27 0.0 0.0 0.00 0.00 0.00 10 1014.8
20260507051535 27 0.0 0.0 0.00 0.00 0.00 10 1014.8
20260507051035 27 0.0 0.0 0.00 0.00 0.00 10 1014.9
20260507050535 27 0.0 0.0 0.00 0.00 0.00 10 1014.9
20260507050035 27 0.0 0.0 0.00 0.00 0.00 10 1014.9
20260507045535 27 0.0 0.0 0.00 0.00 0.00 10 1014.8
20260507045035 27 0.0 0.0 0.00 0.00 0.00 10 1015.0
20260507044535 27 0.0 0.0 0.00 0.00 0.00 10 1015.0
20260507044036 27 0.0 0.0 0.00 0.00 0.00 10 1015.2
20260507043535 27 0.0 0.0 0.00 0.00 0.00 10 1015.3
20260507043035 27 0.0 0.0 0.00 0.00 0.00 10 1015.2
20260507042535 27 0.0 0.0 0.00 0.00 0.00 10 1015.2
20260507042035 27 0.0 0.0 0.00 0.00 0.00 10 1015.3
20260507041535 27 0.0 0.0 0.00 0.00 0.00 10 1015.3
20260507041035 27 0.0 0.0 0.00 0.00 0.00 10 1015.4
20260507040535 27 0.0 0.0 0.00 0.00 0.00 10 1015.5
20260507040035 27 0.0 0.0 0.00 0.00 0.00 10 1015.4
20260507035535 27 0.0 0.0 0.00 0.00 0.00 10 1015.5
20260507035035 27 0.0 0.0 0.00 0.00 0.00 10 1015.6
20260507034536 27 0.0 0.0 0.00 0.00 0.00 10 1015.6
20260507034035 27 0.0 0.0 0.00 0.00 0.00 10 1015.7
20260507033535 27 0.0 0.0 0.00 0.00 0.00 10 1015.7
20260507033035 27 0.0 0.0 0.00 0.00 0.00 10 1015.8
20260507032535 27 0.0 0.0 0.00 0.00 0.00 10 1015.8
20260507032035 27 0.0 0.0 0.00 0.00 0.00 10 1015.8
20260507031535 27 0.0 0.0 0.00 0.00 0.00 10 1015.9
20260507031035 27 0.0 0.0 0.00 0.00 0.00 10 1016.0
20260507030536 27 0.0 0.0 0.00 0.00 0.00 10 1015.9
20260507030035 27 0.0 0.0 0.00 0.00 0.00 10 1015.9
20260507025535 27 0.0 0.0 0.00 0.00 0.00 10 1015.9
20260507025035 27 0.0 0.0 0.00 0.00 0.00 10 1016.0
20260507024535 27 0.0 0.0 0.00 0.00 0.00 10 1016.1
20260507024035 27 0.0 0.0 0.00 0.00 0.00 10 1016.0
20260507023535 27 0.0 0.0 0.00 0.00 0.00 10 1016.2
20260507023035 27 0.0 0.0 0.00 0.00 0.00 10 1016.3
20260507022535 27 0.0 0.0 0.00 0.00 0.00 10 1016.4
20260507022035 27 0.0 0.0 0.00 0.00 0.00 10 1016.4
20260507021535 27 0.0 0.0 0.00 0.00 0.00 10 1016.4
20260507021035 27 0.0 0.0 0.00 0.00 0.00 10 1016.4
20260507020535 27 0.0 0.0 0.00 0.00 0.00 10 1016.3
20260507020035 27 0.0 0.0 0.00 0.00 0.00 10 1016.3
20260507015535 27 0.0 0.0 0.00 0.00 0.00 10 1016.4
20260507015035 27 0.0 0.0 0.00 0.00 0.00 10 1016.4
20260507014535 27 0.0 0.0 0.00 0.00 0.00 10 1016.4
20260507014035 28 0.0 0.0 0.00 0.00 0.00 10 1016.4
20260507013535 28 0.0 0.0 0.00 0.00 0.00 10 1016.3
20260507013035 27 0.0 0.0 0.00 0.00 0.00 10 1016.4
20260507012535 27 0.0 0.0 0.00 0.00 0.00 10 1016.4
20260507012035 27 0.0 0.0 0.00 0.00 0.00 10 1016.5
20260507011535 27 0.0 0.0 0.00 0.00 0.00 99 1016.5
20260507011035 28 0.0 0.0 0.00 0.00 0.00 98 1016.4
20260507010535 28 0.0 0.0 0.00 0.00 0.00 98 1016.5
20260507010035 28 0.0 0.0 0.00 0.00 0.00 98 1016.4
20260507005535 27 0.0 0.0 0.00 0.00 0.00 99 1016.5
20260507005035 28 0.0 0.0 0.00 0.00 0.00 98 1016.5
20260507004535 28 0.0 0.0 0.00 0.00 0.00 98 1016.5
20260507004035 28 0.0 0.0 0.00 0.00 0.00 99 1016.6
20260507003535 28 0.0 0.0 0.00 0.00 0.00 99 1016.7
20260507003035 27 0.0 0.0 0.00 0.00 0.00 99 1016.7
20260507002535 28 0.0 0.0 0.00 0.00 0.00 98 1016.7
20260507002035 28 0.0 0.0 0.00 0.00 0.00 99 1016.6
20260507001535 28 0.0 0.0 0.00 0.00 0.00 99 1016.6
20260507001035 28 0.0 0.0 0.00 0.00 0.00 99 1016.6
20260507000535 28 0.0 0.0 0.00 0.00 0.00 99 1016.7
20260507000036 28 0.0 0.0 0.00 0.00 0.00 98 1016.7
20260506235535 28 0.0 0.0 0.00 0.00 0.00 10 1016.7
20260506235035 28 0.0 0.0 0.00 0.00 0.00 98 1016.7
20260506234535 28 0.0 0.0 0.00 0.00 0.00 97 1016.7
20260506234035 28 0.0 0.0 0.00 0.00 0.00 98 1016.8
20260506233535 28 0.0 0.0 0.00 0.00 0.00 98 1016.7
20260506233035 28 0.0 0.0 0.00 0.00 0.00 10 1016.8
20260506232535 28 0.0 0.0 0.00 0.00 0.00 10 1016.8
20260506232035 28 0.0 0.0 0.00 0.00 0.00 10 1016.7
20260506231535 28 0.0 0.0 0.00 0.00 0.00 99 1016.7
20260506231035 28 0.0 0.0 0.00 0.00 0.00 99 1016.6
20260506230535 28 0.0 0.0 0.00 0.00 0.00 99 1016.5
20260506230035 28 0.0 0.0 0.00 0.00 0.00 10 1016.6
20260506225535 28 0.0 0.0 0.00 0.00 0.00 99 1016.6
20260506225035 28 0.0 0.0 0.00 0.00 0.00 99 1016.5
20260506224535 28 0.0 0.0 0.00 0.00 0.00 98 1016.6
20260506224035 28 0.0 0.0 0.00 0.00 0.00 98 1016.6
20260506223535 28 0.0 0.0 0.00 0.00 0.00 99 1016.5
20260506223035 28 0.0 0.0 0.00 0.00 0.00 98 1016.6
20260506222535 28 0.0 0.0 0.00 0.00 0.00 97 1016.5
20260506222035 28 0.0 0.0 0.00 0.00 0.00 96 1016.5
20260506221535 28 0.0 0.0 0.00 0.00 0.00 96 1016.4
20260506221035 28 0.0 0.0 0.00 0.00 0.00 97 1016.5
20260506220535 28 0.0 0.0 0.00 0.00 0.00 95 1016.3
20260506220035 28 0.0 0.0 0.00 0.00 0.00 96 1016.4
20260506215535 28 0.0 0.0 0.00 0.00 0.00 97 1016.2
20260506215035 28 0.0 0.0 0.00 0.00 0.00 94 1016.2
20260506214535 28 0.0 0.0 0.00 0.00 0.00 96 1016.2
20260506214035 28 0.0 0.0 0.00 0.00 0.00 95 1016.1
20260506213535 28 0.0 0.0 0.00 0.00 0.00 96 1016.1
20260506213035 28 0.0 0.0 0.00 0.00 0.00 95 1016.1
20260506212535 29 0.0 0.0 0.00 0.00 0.00 94 1016.1
20260506212035 29 0.0 0.0 0.00 0.00 0.00 94 1016.1
20260506211535 29 0.0 0.0 0.00 0.00 0.00 94 1016.1
20260506211035 29 0.0 0.0 0.00 0.00 0.00 94 1016.0
20260506210535 29 0.0 0.0 0.00 0.00 0.00 94 1016.0
20260506210035 29 0.0 0.0 0.00 0.00 0.00 94 1016.0
20260506205535 28 0.0 0.0 0.00 0.00 0.00 95 1015.9
20260506205035 28 0.0 0.0 0.00 0.00 0.00 95 1015.9
20260506204535 29 0.0 0.0 0.00 0.00 0.00 92 1015.9
20260506204035 29 0.0 0.0 0.00 0.00 0.00 94 1015.9
20260506203535 29 0.0 0.0 0.00 0.00 0.00 94 1015.9
20260506203048 29 0.0 0.0 0.00 0.00 0.00 92 1015.8
20260506202535 29 0.0 0.0 0.00 0.00 0.00 91 1015.7
20260506202035 29 0.0 0.0 0.00 0.00 0.00 92 1015.7